Location: Tel Aviv
(32.0670°N, 34.7670°E)
Time: 20:11:27
(UTC+03:00)

ACS3 Solar Sail - Visible Passes

Search period start: 07 October 2024 00:00
Search period end: 17 October 2024 00:00
Orbit: 962 x 1035 km, 97.4° (Epoch: 07 October)

Date Brightness Start Highest point End Pass type
(mag) Time Alt. Az. Time Alt. Az. Time Alt. Az.
07 Oct 2.2 20:36:19 52° NNE 20:36:19 52° NNE 20:41:12 10° N visible
07 Oct 4.5 22:21:28 13° WNW 22:21:28 13° WNW 22:22:37 10° WNW visible
08 Oct 3.3 19:23:21 17° ENE 19:23:21 17° ENE 19:27:07 10° NNE visible
08 Oct 2.7 21:08:30 44° NW 21:08:30 44° NW 21:12:52 10° NNW visible
09 Oct 2.7 19:55:31 30° NE 19:55:31 30° NE 20:00:04 10° N visible
09 Oct 3.7 21:40:40 26° WNW 21:40:40 26° WNW 21:44:01 10° NNW visible
10 Oct 2.3 20:27:40 46° NNE 20:27:40 46° NNE 20:32:15 10° N visible
10 Oct 4.4 22:12:49 14° WNW 22:12:49 14° WNW 22:14:13 10° NW visible
11 Oct 3.4 19:14:39 15° ENE 19:14:39 15° ENE 19:17:42 10° NNE visible
11 Oct 2.7 20:59:49 43° NNW 20:59:49 43° NNW 21:03:57 10° NNW visible
12 Oct 2.9 19:46:47 26° NE 19:46:47 26° NE 19:50:53 10° NNE visible
12 Oct 3.6 21:31:56 27° NW 21:31:56 27° NW 21:35:10 10° NNW visible
13 Oct 2.5 20:18:54 40° NNE 20:18:54 40° NNE 20:23:09 10° N visible
13 Oct 4.3 22:04:03 15° WNW 22:04:03 15° WNW 22:05:35 10° NW visible
14 Oct 3.5 19:05:51 13° ENE 19:05:51 13° ENE 19:08:00 10° NE visible
14 Oct 2.8 20:51:00 41° NNW 20:51:00 41° NNW 20:54:54 10° NNW visible
15 Oct 3.0 19:37:56 23° NE 19:37:56 23° NE 19:41:33 10° NNE visible
15 Oct 3.5 21:23:05 28° NW 21:23:05 28° NW 21:26:11 10° NNW visible
16 Oct 2.7 20:10:00 35° NNE 20:10:00 35° NNE 20:13:53 10° N visible
16 Oct 4.3 21:55:09 16° NW 21:55:09 16° NW 21:56:45 10° NW visible
